User: anonymous   Login
Location: Unspecified
(0.0000°N, 0.0000°E)
Time: 13:52:53
(UTC+02:00)
Language:

Iridium 28 - Orbit

View from above orbital plane
View from above orbital plane
View from above satellite
View from above satellite

Ground track
Ground track

The orbit data is extracted from the following two-line orbital elements,

1 24948U 97051E   18175.89441697 +.00000084 +00000-0 +22367-4 0  9995
2 24948 086.3974 130.0495 0002487 095.2611 264.8869 14.35614481087985
Epoch (UTC): 24 June 2018 21:27:57
Eccentricity: 0.0002487
inclination: 86.3974°
perigee height: 771 km
apogee height: 775 km
right ascension of ascending node: 130.0495°
argument of perigee: 95.2611°
revolutions per day: 14.35614481
mean anomaly at epoch: 264.8869°
orbit number at epoch: 8798

The dashed part of the orbit path shows where the satellite is in the earth's shadow,  

DLR